contact:dominique.lefevre@mio.osupytheas.fr, maurice.libes@osupytheas.fr, didier.mallarino@osupytheas.fr
Project:EMSO http://www.emso-fr.org/EMSO-France
Depth: 2436.0 m
Title:EMSO Ligure Ouest : Data MII capteur AQUADOPP
Date,Latitude,Longitude,X_East,Y_North,Z_Up,Amplitude_X,Amplitude_Y,Amplitude_Z,Batterie,SoundSpeed,Heading,Pitch,Roll,Pressure,TIS,Speed,Direction
, degrees North, degrees East, m.s-1, m.s-1,m.s-1, 1, 1, 1, Volt, m.s-1, degree, degree, degree, dbar, degree_C, m.s-1, degree
2022-01-09T00:04:03,42.805,6.029,-0.041,-0.001,-0.038,100.0,100.0,100.0,13.4,1505.2,325.1,-0.8,1.8,2470.751,13.29,0.041,268.6
2022-01-09T00:07:03,42.805,6.029,-0.022,0.018,-0.013,100.0,101.0,100.0,13.3,1505.2,325.5,-0.8,1.8,2470.959,13.29,0.028,309.3
2022-01-09T00:10:03,42.805,6.029,-0.023,-0.008,-0.017,101.0,101.0,100.0,13.4,1505.2,326.0,-0.8,1.8,2471.234,13.29,0.024,250.8
2022-01-09T00:13:03,42.805,6.029,-0.013,0.0,-0.035,101.0,100.0,101.0,13.4,1505.2,331.9,-0.8,1.8,2470.767,13.29,0.013,270.0
2022-01-09T00:16:03,42.805,6.029,0.003,-0.013,-0.053,101.0,101.0,101.0,13.3,1505.2,324.0,-0.7,1.8,2470.519,13.29,0.013,167.0
2022-01-09T00:19:03,42.805,6.029,-0.01,0.001,0.006,101.0,101.0,100.0,13.3,1505.2,329.6,-0.8,1.8,2470.431,13.29,0.01,275.7
2022-01-09T00:22:03,42.805,6.029,-0.013,-0.018,-0.052,101.0,100.0,101.0,13.4,1505.2,331.3,-0.7,1.8,2470.387,13.29,0.022,215.8
2022-01-09T00:25:03,42.805,6.029,-0.024,-0.008,-0.011,102.0,100.0,100.0,13.4,1505.2,331.0,-0.8,1.8,2470.402,13.29,0.025,251.6
2022-01-09T00:28:03,42.805,6.029,-0.037,-0.009,-0.029,99.0,98.0,102.0,13.3,1505.2,330.4,-0.8,1.8,2470.372,13.29,0.038,256.3
2022-01-09T00:31:03,42.805,6.029,0.009,-0.004,0.01,102.0,101.0,100.0,13.4,1505.2,327.1,-0.7,1.8,2470.325,13.29,0.009,114.0
2022-01-09T00:34:03,42.805,6.029,-0.026,-0.017,-0.026,101.0,100.0,99.0,13.4,1505.2,327.1,-0.7,1.8,2470.302,13.29,0.031,236.8
2022-01-09T00:37:03,42.805,6.029,-0.005,-0.014,-0.027,101.0,101.0,101.0,13.3,1505.2,326.9,-0.7,1.8,2470.238,13.29,0.014,199.6
2022-01-09T00:40:03,42.805,6.029,-0.02,-0.012,-0.009,100.0,101.0,100.0,13.3,1505.2,327.3,-0.8,1.8,2470.234,13.29,0.023,239.0
2022-01-09T00:43:03,42.805,6.029,-0.01,0.005,-0.022,100.0,100.0,101.0,13.4,1505.2,324.4,-0.8,1.8,2470.185,13.29,0.011,296.6
2022-01-09T00:46:03,42.805,6.029,-0.016,0.005,-0.009,99.0,101.0,101.0,13.4,1505.2,325.9,-0.8,1.8,2470.165,13.29,0.016,287.4
2022-01-09T00:49:03,42.805,6.029,-0.012,-0.014,-0.029,101.0,99.0,101.0,13.4,1505.2,330.5,-0.7,1.8,2470.157,13.29,0.018,220.6
2022-01-09T00:52:03,42.805,6.029,-0.004,0.002,-0.017,103.0,98.0,100.0,13.4,1505.2,325.5,-0.7,1.8,2470.163,13.29,0.004,296.6
2022-01-09T00:55:03,42.805,6.029,-0.015,0.016,0.013,102.0,99.0,100.0,13.4,1505.2,327.9,-0.8,1.8,2470.116,13.29,0.021,316.9
2022-01-09T00:58:03,42.805,6.029,-0.004,-0.005,-0.02,100.0,102.0,98.0,13.4,1505.2,329.9,-0.7,1.8,2470.223,13.29,0.006,218.7
2022-01-09T01:04:03,42.805,6.029,-0.043,-0.035,-0.03,105.0,103.0,103.0,13.3,1505.2,327.4,-0.8,1.8,2470.325,13.29,0.055,230.9
2022-01-09T01:07:02,42.805,6.029,0.0,-0.021,-0.005,101.0,102.0,99.0,13.4,1505.2,330.0,-0.8,1.8,2470.298,13.29,0.021,180.0
2022-01-09T01:10:03,42.805,6.029,-0.017,0.0,0.01,102.0,102.0,98.0,13.4,1505.2,326.1,-0.8,1.8,2470.356,13.29,0.017,270.0
2022-01-09T01:13:03,42.805,6.029,-0.04,0.004,-0.026,101.0,101.0,100.0,13.4,1505.2,329.1,-0.7,1.8,2470.332,13.29,0.04,275.7
2022-01-09T01:16:03,42.805,6.029,-0.005,-0.023,-0.024,102.0,104.0,99.0,13.4,1505.2,329.3,-0.7,1.8,2470.411,13.29,0.023,192.3
2022-01-09T01:19:03,42.805,6.029,-0.023,-0.023,-0.055,101.0,101.0,100.0,13.3,1505.2,327.2,-0.8,1.8,2470.386,13.29,0.032,225.0
2022-01-09T01:22:03,42.805,6.029,-0.044,0.002,-0.002,101.0,99.0,101.0,13.3,1505.2,326.7,-0.7,1.9,2470.374,13.29,0.044,272.6
2022-01-09T01:25:03,42.805,6.029,-0.014,0.001,-0.017,100.0,100.0,101.0,13.3,1505.2,329.5,-0.7,1.8,2470.4,13.29,0.014,274.1
2022-01-09T01:28:03,42.805,6.029,-0.017,-0.004,-0.024,102.0,98.0,100.0,13.4,1505.2,327.8,-0.7,1.8,2470.458,13.29,0.017,256.8
2022-01-09T01:31:03,42.805,6.029,0.002,-0.002,-0.006,103.0,99.0,101.0,13.4,1505.2,327.2,-0.7,1.8,2470.48,13.29,0.002,135.0
2022-01-09T01:34:03,42.805,6.029,-0.009,-0.011,0.026,102.0,100.0,100.0,13.4,1505.2,323.8,-0.8,1.8,2470.481,13.29,0.014,219.3
2022-01-09T01:37:03,42.805,6.029,-0.015,0.002,0.006,101.0,101.0,100.0,13.3,1505.2,330.1,-0.8,1.8,2470.559,13.29,0.015,277.6
2022-01-09T01:40:03,42.805,6.029,-0.032,0.0,-0.025,102.0,102.0,100.0,13.4,1505.2,324.5,-0.8,1.8,2470.515,13.29,0.032,270.0
2022-01-09T01:43:03,42.805,6.029,-0.01,-0.004,-0.031,100.0,99.0,100.0,13.3,1505.2,325.6,-0.7,1.8,2470.542,13.29,0.01,248.2
2022-01-09T01:46:03,42.805,6.029,0.007,-0.028,-0.038,99.0,102.0,101.0,13.4,1505.2,331.2,-0.8,1.8,2470.6,13.29,0.028,166.0
2022-01-09T01:49:03,42.805,6.029,-0.008,0.008,-0.016,101.0,100.0,100.0,13.4,1505.2,327.6,-0.7,1.8,2470.582,13.29,0.011,315.0
2022-01-09T01:52:03,42.805,6.029,-0.024,0.034,0.022,100.0,100.0,100.0,13.3,1505.2,327.7,-0.8,1.8,2470.628,13.29,0.041,324.8
2022-01-09T01:55:03,42.805,6.029,0.012,-0.014,-0.034,101.0,100.0,101.0,13.4,1505.2,324.8,-0.8,1.8,2470.624,13.29,0.018,139.4
2022-01-09T01:58:03,42.805,6.029,-0.027,0.007,-0.033,103.0,101.0,100.0,13.4,1505.2,330.1,-0.7,1.9,2470.628,13.29,0.027,284.5
2022-01-09T02:04:03,42.805,6.029,-0.028,0.008,-0.042,101.0,101.0,100.0,13.4,1505.2,329.2,-0.8,1.8,2473.707,13.29,0.029,285.9
2022-01-09T02:07:03,42.805,6.029,-0.015,-0.014,-0.039,101.0,101.0,100.0,13.3,1505.2,325.0,-0.8,1.8,2474.113,13.29,0.02,227.0
2022-01-09T02:10:03,42.805,6.029,-0.013,-0.004,-0.013,101.0,101.0,100.0,13.3,1505.2,325.1,-0.7,1.8,2472.884,13.29,0.013,252.9
2022-01-09T02:13:03,42.805,6.029,-0.036,-0.015,-0.007,101.0,101.0,99.0,13.4,1505.2,326.3,-0.8,1.8,2471.777,13.29,0.039,247.4
2022-01-09T02:16:03,42.805,6.029,-0.006,0.003,-0.012,100.0,101.0,100.0,13.4,1505.2,327.6,-0.8,1.8,2470.8,13.29,0.006,296.6
2022-01-09T02:19:03,42.805,6.029,-0.004,0.002,0.005,102.0,101.0,101.0,13.4,1505.2,329.5,-0.8,1.8,2470.132,13.29,0.004,296.6
2022-01-09T02:22:03,42.805,6.029,-0.007,-0.015,-0.026,101.0,101.0,100.0,13.3,1505.2,324.4,-0.8,1.8,2470.156,13.29,0.016,205.0
2022-01-09T02:25:03,42.805,6.029,-0.007,0.02,-0.003,101.0,101.0,100.0,13.4,1505.2,330.8,-0.8,1.8,2470.186,13.29,0.021,340.7
2022-01-09T02:28:03,42.805,6.029,0.0,0.0,-0.003,102.0,104.0,99.0,13.4,1505.2,324.0,-0.7,1.8,2470.232,13.29,0.0,0.0
2022-01-09T02:31:03,42.805,6.029,-0.004,0.0,-0.035,100.0,102.0,101.0,13.4,1505.2,330.0,-0.7,1.8,2470.214,13.29,0.004,270.0
2022-01-09T02:34:03,42.805,6.029,0.004,0.009,-0.036,100.0,100.0,99.0,13.4,1505.2,330.7,-0.7,1.8,2470.283,13.29,0.009,24.0
2022-01-09T02:37:03,42.805,6.029,0.007,-0.012,-0.043,101.0,101.0,102.0,13.4,1505.2,324.5,-0.7,1.8,2470.233,13.29,0.013,149.7
2022-01-09T02:40:03,42.805,6.029,-0.011,-0.017,-0.012,100.0,101.0,100.0,13.4,1505.2,326.8,-0.8,1.8,2470.283,13.29,0.02,212.9
2022-01-09T02:43:03,42.805,6.029,0.015,0.0,0.005,102.0,102.0,101.0,13.4,1505.2,330.6,-0.7,1.8,2470.323,13.29,0.015,90.0
2022-01-09T02:46:03,42.805,6.029,0.007,-0.015,-0.013,101.0,102.0,100.0,13.4,1505.2,324.0,-0.8,1.8,2470.319,13.29,0.016,155.0
2022-01-09T02:49:03,42.805,6.029,-0.019,-0.005,0.024,102.0,101.0,100.0,13.3,1505.2,329.6,-0.7,1.8,2470.37,13.29,0.019,255.3
2022-01-09T02:52:03,42.805,6.029,0.005,-0.015,-0.039,101.0,102.0,98.0,13.3,1505.2,327.5,-0.7,1.8,2470.364,13.29,0.015,161.6
2022-01-09T02:55:03,42.805,6.029,-0.04,0.009,-0.029,101.0,99.0,100.0,13.4,1505.2,328.5,-0.8,1.9,2470.375,13.29,0.041,282.7
2022-01-09T02:58:03,42.805,6.029,-0.015,0.01,-0.034,102.0,101.0,99.0,13.4,1505.2,328.1,-0.7,1.8,2470.372,13.29,0.018,303.7
2022-01-09T03:04:03,42.805,6.029,0.017,-0.015,-0.006,101.0,100.0,100.0,13.4,1505.2,326.9,-0.7,1.8,2470.464,13.29,0.022,131.4
2022-01-09T03:07:03,42.805,6.029,-0.038,0.043,0.038,101.0,102.0,99.0,13.4,1505.2,325.9,-0.8,1.8,2470.456,13.29,0.057,318.5
2022-01-09T03:10:03,42.805,6.029,-0.045,0.0,-0.028,99.0,100.0,101.0,13.4,1505.2,323.6,-0.7,1.8,2470.481,13.29,0.045,270.0
2022-01-09T03:13:03,42.805,6.029,-0.012,0.004,-0.039,102.0,100.0,100.0,13.4,1505.2,327.0,-0.7,1.8,2470.467,13.29,0.012,288.4
2022-01-09T03:16:03,42.805,6.029,-0.012,0.0,-0.028,101.0,101.0,100.0,13.4,1505.2,330.3,-0.8,1.8,2470.484,13.29,0.012,270.0
2022-01-09T03:19:03,42.805,6.029,0.009,0.003,-0.019,100.0,104.0,100.0,13.4,1505.2,331.0,-0.7,1.8,2470.433,13.29,0.009,71.6
2022-01-09T03:22:03,42.805,6.029,0.006,-0.002,-0.021,101.0,102.0,100.0,13.4,1505.2,326.9,-0.8,1.8,2470.421,13.29,0.006,108.4
2022-01-09T03:25:03,42.805,6.029,-0.019,0.003,-0.011,101.0,100.0,101.0,13.4,1505.2,326.9,-0.8,1.8,2470.412,13.29,0.019,279.0
2022-01-09T03:28:03,42.805,6.029,-0.013,-0.005,-0.021,100.0,101.0,100.0,13.4,1505.2,329.1,-0.8,1.8,2470.441,13.29,0.013,249.0
2022-01-09T03:31:03,42.805,6.029,-0.022,0.008,-0.012,100.0,99.0,100.0,13.4,1505.2,325.0,-0.8,1.8,2472.059,13.29,0.023,290.0
2022-01-09T03:34:03,42.805,6.029,-0.021,0.016,0.024,101.0,100.0,101.0,13.4,1505.2,330.3,-0.7,1.8,2472.915,13.29,0.026,307.3
2022-01-09T03:37:03,42.805,6.029,-0.009,-0.012,-0.018,100.0,102.0,99.0,13.4,1505.2,329.2,-0.7,1.8,2473.433,13.29,0.015,216.9
2022-01-09T03:40:03,42.805,6.029,0.014,-0.013,0.014,101.0,101.0,99.0,13.4,1505.2,330.0,-0.7,1.8,2472.657,13.29,0.019,132.9
2022-01-09T03:43:03,42.805,6.029,-0.02,-0.012,-0.027,101.0,100.0,99.0,13.4,1505.2,326.1,-0.8,1.8,2471.89,13.29,0.023,239.0
2022-01-09T03:46:03,42.805,6.029,0.009,0.0,-0.016,101.0,99.0,101.0,13.3,1505.2,332.2,-0.8,1.8,2470.891,13.29,0.009,90.0
2022-01-09T03:49:03,42.805,6.029,-0.015,0.008,-0.002,98.0,102.0,99.0,13.4,1505.2,328.8,-0.7,1.8,2470.355,13.29,0.017,298.1
2022-01-09T03:52:03,42.805,6.029,-0.017,0.023,-0.007,100.0,104.0,100.0,13.3,1505.2,328.3,-0.8,1.8,2470.003,13.29,0.028,323.5
2022-01-09T03:55:03,42.805,6.029,-0.012,-0.009,-0.004,101.0,103.0,98.0,13.3,1505.2,326.7,-0.8,1.8,2470.004,13.29,0.015,233.1
2022-01-09T03:58:03,42.805,6.029,-0.026,0.0,-0.018,101.0,100.0,100.0,13.4,1505.2,331.5,-0.8,1.8,2470.032,13.29,0.026,270.0
2022-01-09T04:04:03,42.805,6.029,-0.017,0.019,0.006,100.0,99.0,100.0,13.4,1505.2,331.2,-0.7,1.8,2470.138,13.29,0.025,318.2
2022-01-09T04:07:03,42.805,6.029,-0.018,0.022,0.035,100.0,101.0,101.0,13.4,1505.2,323.9,-0.7,1.8,2470.146,13.29,0.028,320.7
2022-01-09T04:10:03,42.805,6.029,0.008,-0.001,-0.044,101.0,100.0,99.0,13.3,1505.2,328.1,-0.8,1.8,2470.186,13.29,0.008,97.1
2022-01-09T04:13:03,42.805,6.029,-0.006,0.012,0.0,100.0,101.0,99.0,13.4,1505.2,326.5,-0.8,1.8,2470.163,13.29,0.013,333.4
2022-01-09T04:16:03,42.805,6.029,0.006,-0.005,0.0,99.0,100.0,100.0,13.3,1505.2,326.5,-0.7,1.8,2470.139,13.29,0.007,129.8
2022-01-09T04:19:03,42.805,6.029,-0.018,0.0,0.02,100.0,100.0,100.0,13.4,1505.2,326.3,-0.8,1.8,2470.12,13.29,0.018,270.0
2022-01-09T04:22:03,42.805,6.029,-0.018,-0.009,-0.044,98.0,101.0,102.0,13.3,1505.2,327.1,-0.7,1.8,2471.278,13.29,0.02,243.4
2022-01-09T04:25:03,42.805,6.029,-0.011,0.025,-0.027,100.0,102.0,100.0,13.4,1505.2,329.3,-0.8,1.8,2470.72,13.29,0.027,336.3
2022-01-09T04:28:03,42.805,6.029,-0.016,-0.004,-0.018,103.0,100.0,99.0,13.4,1505.2,325.3,-0.8,1.8,2470.622,13.29,0.016,256.0
2022-01-09T04:31:03,42.805,6.029,-0.02,0.01,-0.023,102.0,101.0,100.0,13.4,1505.2,324.8,-0.7,1.8,2470.88,13.29,0.022,296.6
2022-01-09T04:34:03,42.805,6.029,-0.006,-0.015,-0.018,100.0,101.0,100.0,13.4,1505.2,325.9,-0.8,1.8,2470.924,13.29,0.016,201.8
2022-01-09T04:37:03,42.805,6.029,-0.03,0.002,-0.015,100.0,101.0,100.0,13.4,1505.2,325.6,-0.8,1.8,2470.983,13.29,0.03,273.8
2022-01-09T04:40:03,42.805,6.029,-0.015,0.009,0.005,101.0,101.0,100.0,13.4,1505.2,329.7,-0.8,1.8,2471.015,13.29,0.017,301.0
2022-01-09T04:43:03,42.805,6.029,-0.023,-0.005,-0.012,101.0,99.0,100.0,13.3,1505.2,323.5,-0.8,1.8,2471.149,13.29,0.023,257.7
2022-01-09T04:46:03,42.805,6.029,0.005,-0.012,-0.04,100.0,100.0,100.0,13.3,1505.2,326.2,-0.8,1.8,2471.066,13.29,0.013,157.4
2022-01-09T04:49:03,42.805,6.029,-0.024,-0.009,-0.048,100.0,100.0,100.0,13.3,1505.2,327.6,-0.8,1.9,2471.107,13.29,0.025,249.4
2022-01-09T04:52:03,42.805,6.029,-0.004,0.001,0.002,100.0,101.0,100.0,13.4,1505.2,331.4,-0.8,1.8,2471.016,13.29,0.004,284.0
2022-01-09T04:55:03,42.805,6.029,-0.007,0.002,0.006,100.0,100.0,100.0,13.3,1505.2,323.6,-0.8,1.8,2470.883,13.29,0.007,285.9
2022-01-09T04:58:03,42.805,6.029,-0.02,0.004,0.002,101.0,100.0,100.0,13.3,1505.2,325.1,-0.7,1.8,2470.771,13.29,0.02,281.3
2022-01-09T05:04:03,42.805,6.029,0.017,-0.018,-0.016,100.0,101.0,100.0,13.4,1505.2,331.4,-0.8,1.8,2470.627,13.29,0.024,136.6
2022-01-09T05:07:03,42.805,6.029,-0.019,-0.013,-0.034,101.0,100.0,99.0,13.4,1505.2,330.1,-0.8,1.8,2470.633,13.29,0.023,235.6
2022-01-09T05:10:03,42.805,6.029,0.006,-0.014,-0.012,100.0,99.0,100.0,13.4,1505.2,331.1,-0.7,1.8,2470.533,13.29,0.015,156.8
2022-01-09T05:13:03,42.805,6.029,-0.014,-0.015,-0.026,100.0,102.0,100.0,13.4,1505.2,329.3,-0.7,1.8,2470.431,13.29,0.02,223.0
2022-01-09T05:16:03,42.805,6.029,-0.001,0.017,0.0,99.0,102.0,99.0,13.4,1505.2,327.6,-0.7,1.8,2470.311,13.29,0.017,356.6
2022-01-09T05:19:03,42.805,6.029,-0.027,0.019,0.008,100.0,101.0,100.0,13.4,1505.2,331.6,-0.8,1.8,2470.269,13.29,0.033,305.1
2022-01-09T05:22:03,42.805,6.029,-0.015,-0.011,-0.009,101.0,100.0,99.0,13.4,1505.2,329.9,-0.7,1.8,2470.208,13.29,0.018,233.7
2022-01-09T05:25:03,42.805,6.029,-0.009,0.005,-0.021,99.0,100.0,101.0,13.3,1505.2,329.8,-0.7,1.8,2470.105,13.29,0.01,299.1
2022-01-09T05:28:03,42.805,6.029,-0.003,0.008,-0.009,100.0,99.0,100.0,13.4,1505.2,324.2,-0.8,1.8,2469.994,13.29,0.008,339.4
2022-01-09T05:31:03,42.805,6.029,-0.022,-0.002,-0.046,101.0,101.0,100.0,13.4,1505.2,324.8,-0.8,1.8,2469.874,13.29,0.022,264.8
2022-01-09T05:34:03,42.805,6.029,-0.021,-0.001,-0.015,101.0,100.0,100.0,13.4,1505.2,323.3,-0.7,1.8,2469.772,13.29,0.021,267.3
2022-01-09T05:37:03,42.805,6.029,-0.024,-0.008,-0.006,100.0,100.0,101.0,13.4,1505.2,326.6,-0.8,1.8,2469.62,13.29,0.025,251.6
2022-01-09T05:40:03,42.805,6.029,-0.008,0.013,0.012,100.0,100.0,100.0,13.3,1505.2,327.5,-0.8,1.8,2469.582,13.29,0.015,328.4
2022-01-09T05:43:03,42.805,6.029,-0.012,-0.013,-0.056,100.0,101.0,100.0,13.4,1505.2,331.6,-0.7,1.8,2469.526,13.29,0.017,222.7
2022-01-09T05:46:03,42.805,6.029,-0.017,-0.005,-0.033,99.0,102.0,100.0,13.4,1505.2,328.1,-0.8,1.8,2469.482,13.29,0.017,253.6
2022-01-09T05:49:03,42.805,6.029,-0.022,0.01,-0.032,100.0,102.0,101.0,13.4,1505.2,330.2,-0.8,1.8,2469.417,13.29,0.024,294.4
2022-01-09T05:52:03,42.805,6.029,-0.024,0.021,-0.01,101.0,100.0,101.0,13.3,1505.2,326.7,-0.7,1.9,2469.395,13.29,0.031,311.2
2022-01-09T05:55:03,42.805,6.029,-0.029,0.017,-0.025,101.0,99.0,100.0,13.4,1505.2,327.8,-0.8,1.8,2469.4,13.29,0.033,300.4
2022-01-09T05:58:03,42.805,6.029,0.004,-0.005,0.013,100.0,100.0,100.0,13.3,1505.2,326.3,-0.7,1.8,2469.446,13.29,0.006,141.3
2022-01-09T06:04:03,42.805,6.029,-0.008,0.012,0.007,100.0,99.0,101.0,13.3,1505.2,330.2,-0.7,1.8,2469.468,13.29,0.014,326.3
2022-01-09T06:07:03,42.805,6.029,-0.023,0.026,0.005,99.0,101.0,100.0,13.4,1505.2,324.3,-0.8,1.8,2469.511,13.29,0.034,318.5
2022-01-09T06:10:03,42.805,6.029,-0.025,0.013,0.0,101.0,101.0,99.0,13.4,1505.2,326.7,-0.8,1.8,2469.458,13.29,0.028,297.5
2022-01-09T06:13:03,42.805,6.029,0.003,0.009,-0.023,104.0,103.0,99.0,13.4,1505.2,327.6,-0.8,1.9,2469.526,13.29,0.009,18.4
2022-01-09T06:16:03,42.805,6.029,-0.015,-0.005,-0.001,101.0,100.0,100.0,13.4,1505.2,326.7,-0.8,1.8,2469.509,13.29,0.015,251.6
2022-01-09T06:19:03,42.805,6.029,0.003,-0.016,0.008,102.0,99.0,101.0,13.4,1505.2,328.4,-0.7,1.8,2469.536,13.29,0.016,169.4
2022-01-09T06:22:03,42.805,6.029,-0.012,0.005,-0.03,100.0,102.0,100.0,13.3,1505.2,328.4,-0.8,1.8,2469.536,13.29,0.013,292.6
2022-01-09T06:25:03,42.805,6.029,-0.016,0.017,-0.006,100.0,101.0,99.0,13.3,1505.2,328.8,-0.7,1.8,2469.586,13.29,0.023,316.7
2022-01-09T06:28:03,42.805,6.029,-0.012,0.03,0.021,100.0,99.0,101.0,13.3,1505.2,326.3,-0.7,1.8,2469.558,13.29,0.032,338.2
2022-01-09T06:31:03,42.805,6.029,-0.026,0.012,-0.018,100.0,101.0,100.0,13.4,1505.2,326.9,-0.7,1.8,2469.54,13.29,0.028,294.8
2022-01-09T06:34:03,42.805,6.029,-0.016,0.012,-0.005,100.0,99.0,101.0,13.4,1505.2,326.1,-0.8,1.8,2469.535,13.29,0.02,306.9
2022-01-09T06:37:03,42.805,6.029,-0.002,0.012,0.026,99.0,102.0,101.0,13.4,1505.2,328.8,-0.7,1.8,2469.611,13.29,0.012,350.5
2022-01-09T06:40:03,42.805,6.029,-0.022,-0.001,-0.029,101.0,100.0,100.0,13.4,1505.2,328.7,-0.7,1.8,2469.551,13.29,0.022,267.4
2022-01-09T06:43:03,42.805,6.029,-0.013,-0.008,-0.007,100.0,101.0,100.0,13.4,1505.2,328.8,-0.8,1.8,2469.671,13.29,0.015,238.4
2022-01-09T06:46:03,42.805,6.029,-0.005,0.007,-0.004,101.0,101.0,100.0,13.4,1505.2,331.0,-0.8,1.8,2469.66,13.29,0.008,324.5
2022-01-09T06:49:03,42.805,6.029,-0.016,0.017,-0.019,100.0,100.0,99.0,13.4,1505.2,323.5,-0.8,1.8,2469.705,13.29,0.023,316.7
2022-01-09T06:52:03,42.805,6.029,-0.02,-0.023,-0.051,102.0,100.0,100.0,13.4,1505.2,325.6,-0.8,1.8,2469.755,13.29,0.03,221.0
2022-01-09T06:55:03,42.805,6.029,-0.021,-0.015,-0.034,100.0,101.0,100.0,13.3,1505.2,326.7,-0.7,1.9,2469.817,13.29,0.025,234.5
2022-01-09T06:58:03,42.805,6.029,0.003,-0.001,0.015,101.0,99.0,101.0,13.4,1505.2,329.1,-0.8,1.8,2469.848,13.29,0.003,108.4
2022-01-09T07:04:03,42.805,6.029,-0.022,0.007,-0.004,100.0,101.0,100.0,13.4,1505.2,325.6,-0.7,1.8,2469.979,13.29,0.023,287.6
2022-01-09T07:07:03,42.805,6.029,-0.017,0.021,0.007,101.0,101.0,100.0,13.4,1505.2,331.6,-0.8,1.8,2469.97,13.29,0.027,321.0
2022-01-09T07:10:03,42.805,6.029,0.005,0.024,0.0,102.0,99.0,101.0,13.4,1505.2,324.3,-0.8,1.8,2470.014,13.29,0.024,11.8
2022-01-09T07:13:03,42.805,6.029,-0.019,0.003,0.007,103.0,99.0,101.0,13.4,1505.2,326.0,-0.8,1.8,2470.02,13.29,0.019,279.0
2022-01-09T07:16:03,42.805,6.029,-0.031,0.018,0.002,101.0,102.0,99.0,13.4,1505.2,331.1,-0.8,1.8,2470.095,13.29,0.035,300.1
2022-01-09T07:19:03,42.805,6.029,-0.024,0.0,-0.031,102.0,100.0,100.0,13.4,1505.2,331.1,-0.7,1.8,2470.113,13.29,0.024,270.0
2022-01-09T07:22:03,42.805,6.029,-0.017,0.004,-0.031,101.0,99.0,101.0,13.3,1505.2,332.1,-0.8,1.8,2470.127,13.29,0.017,283.2
2022-01-09T07:25:03,42.805,6.029,-0.007,-0.006,-0.009,101.0,103.0,99.0,13.3,1505.2,331.0,-0.7,1.8,2470.145,13.29,0.009,229.4
2022-01-09T07:28:03,42.805,6.029,0.003,0.001,-0.016,99.0,100.0,101.0,13.4,1505.2,332.1,-0.8,1.8,2470.179,13.29,0.003,71.6
2022-01-09T07:31:03,42.805,6.029,-0.007,-0.012,-0.04,100.0,103.0,101.0,13.3,1505.2,326.1,-0.7,1.8,2470.219,13.29,0.013,210.3
2022-01-09T07:34:03,42.805,6.029,0.0,0.01,0.014,98.0,101.0,102.0,13.4,1505.2,326.9,-0.7,1.8,2470.218,13.29,0.01,0.0
2022-01-09T07:37:03,42.805,6.029,-0.012,-0.005,-0.016,102.0,98.0,101.0,13.3,1505.2,330.4,-0.7,1.8,2470.23,13.29,0.013,247.4
2022-01-09T07:40:03,42.805,6.029,-0.025,0.002,-0.029,100.0,100.0,101.0,13.3,1505.2,328.4,-0.7,1.8,2470.244,13.29,0.025,274.6
2022-01-09T07:43:03,42.805,6.029,-0.012,0.005,-0.019,102.0,101.0,100.0,13.3,1505.2,329.4,-0.8,1.8,2470.292,13.29,0.013,292.6
2022-01-09T07:46:03,42.805,6.029,-0.008,0.01,-0.031,102.0,100.0,100.0,13.4,1505.2,326.7,-0.8,1.8,2470.513,13.29,0.012,321.3
2022-01-09T07:49:03,42.805,6.029,-0.018,0.005,-0.011,100.0,100.0,101.0,13.4,1505.2,324.2,-0.8,1.8,2471.388,13.29,0.018,285.5
2022-01-09T07:52:03,42.805,6.029,-0.031,0.001,-0.017,101.0,100.0,100.0,13.3,1505.2,328.8,-0.8,1.8,2471.82,13.29,0.031,271.8
2022-01-09T07:55:03,42.805,6.029,0.016,0.006,0.004,102.0,100.0,100.0,13.3,1505.2,329.7,-0.7,1.8,2472.406,13.29,0.017,69.4
2022-01-09T07:58:03,42.805,6.029,-0.012,0.001,-0.006,101.0,102.0,99.0,13.4,1505.2,328.5,-0.8,1.8,2472.485,13.29,0.012,274.8
2022-01-09T08:04:03,42.805,6.029,-0.008,0.0,-0.001,100.0,102.0,100.0,13.4,1505.2,325.5,-0.8,1.8,2472.465,13.29,0.008,270.0
2022-01-09T08:07:03,42.805,6.029,0.0,-0.003,-0.003,101.0,101.0,101.0,13.4,1505.2,327.1,-0.7,1.8,2472.31,13.29,0.003,180.0
2022-01-09T08:10:03,42.805,6.029,0.001,0.015,0.012,102.0,101.0,100.0,13.4,1505.2,326.3,-0.8,1.9,2472.357,13.29,0.015,3.8
2022-01-09T08:13:03,42.805,6.029,-0.009,0.033,0.006,102.0,101.0,100.0,13.4,1505.2,326.8,-0.8,1.8,2472.24,13.29,0.034,344.7
2022-01-09T08:16:03,42.805,6.029,-0.009,0.012,-0.014,101.0,101.0,100.0,13.4,1505.2,329.9,-0.7,1.8,2472.141,13.29,0.015,323.1
2022-01-09T08:19:03,42.805,6.029,-0.012,-0.008,0.001,103.0,100.0,101.0,13.4,1505.2,329.7,-0.8,1.8,2471.996,13.29,0.014,236.3
2022-01-09T08:22:03,42.805,6.029,-0.04,0.012,0.0,102.0,102.0,101.0,13.4,1505.2,329.0,-0.8,1.8,2471.915,13.29,0.041,286.7
2022-01-09T08:25:03,42.805,6.029,-0.025,-0.005,0.001,102.0,102.0,100.0,13.4,1505.2,324.2,-0.8,1.8,2471.809,13.29,0.025,258.7
2022-01-09T08:28:03,42.805,6.029,-0.009,0.014,-0.009,102.0,100.0,102.0,13.4,1505.2,331.8,-0.7,1.8,2471.727,13.29,0.016,327.3
2022-01-09T08:31:03,42.805,6.029,-0.002,0.002,-0.023,101.0,101.0,101.0,13.4,1505.2,328.2,-0.8,1.8,2471.649,13.29,0.002,315.0
2022-01-09T08:34:03,42.805,6.029,0.004,0.03,0.0,101.0,100.0,99.0,13.4,1505.2,326.3,-0.8,1.9,2471.635,13.29,0.03,7.6
2022-01-09T08:37:03,42.805,6.029,-0.021,0.008,-0.006,100.0,102.0,100.0,13.4,1505.2,325.5,-0.7,1.8,2471.426,13.29,0.022,290.9
2022-01-09T08:40:03,42.805,6.029,0.012,0.004,-0.005,102.0,100.0,102.0,13.3,1505.2,328.2,-0.7,1.8,2471.434,13.29,0.012,71.6
2022-01-09T08:43:03,42.805,6.029,-0.036,0.0,-0.018,101.0,102.0,99.0,13.4,1505.2,329.9,-0.8,1.8,2471.359,13.29,0.036,270.0
2022-01-09T08:46:03,42.805,6.029,-0.033,0.039,0.023,102.0,102.0,100.0,13.4,1505.2,327.9,-0.7,1.8,2471.261,13.29,0.051,319.8
2022-01-09T08:49:03,42.805,6.029,-0.009,0.021,0.013,101.0,101.0,102.0,13.4,1505.2,329.0,-0.7,1.8,2471.137,13.29,0.022,336.8
2022-01-09T08:52:03,42.805,6.029,-0.01,0.004,-0.026,100.0,101.0,100.0,13.4,1505.2,329.9,-0.7,1.8,2470.987,13.29,0.01,291.8
2022-01-09T08:55:03,42.805,6.029,0.003,0.004,0.007,102.0,101.0,99.0,13.4,1505.2,328.5,-0.8,1.8,2470.839,13.29,0.005,36.9
2022-01-09T08:58:03,42.805,6.029,-0.011,0.016,0.022,101.0,101.0,100.0,13.4,1505.2,326.9,-0.8,1.8,2470.669,13.29,0.019,325.5
2022-01-09T09:04:03,42.805,6.029,-0.025,0.003,-0.003,102.0,101.0,99.0,13.3,1505.2,326.1,-0.7,1.8,2470.64,13.29,0.025,276.8
2022-01-09T09:07:03,42.805,6.029,-0.017,-0.005,-0.027,101.0,101.0,100.0,13.4,1505.2,327.3,-0.8,1.8,2470.575,13.29,0.017,253.6
2022-01-09T09:10:03,42.805,6.029,0.004,0.008,-0.01,102.0,101.0,100.0,13.4,1505.2,326.5,-0.7,1.8,2470.422,13.29,0.008,26.6
2022-01-09T09:13:03,42.805,6.029,-0.009,0.002,0.002,100.0,101.0,100.0,13.3,1505.2,327.9,-0.8,1.8,2470.418,13.29,0.009,282.5
2022-01-09T09:16:03,42.805,6.029,-0.011,-0.017,-0.022,101.0,100.0,100.0,13.4,1505.2,328.3,-0.8,1.8,2470.338,13.29,0.02,212.9
2022-01-09T09:19:03,42.805,6.029,-0.02,0.014,0.004,101.0,102.0,100.0,13.3,1505.2,328.7,-0.7,1.8,2470.302,13.29,0.024,305.0
2022-01-09T09:22:03,42.805,6.029,0.0,0.011,0.031,102.0,100.0,100.0,13.4,1505.2,329.3,-0.7,1.8,2470.235,13.29,0.011,0.0
2022-01-09T09:25:03,42.805,6.029,-0.037,0.002,-0.008,101.0,104.0,102.0,13.4,1505.2,327.9,-0.7,1.8,2470.155,13.29,0.037,273.1
2022-01-09T09:28:03,42.805,6.029,-0.025,0.031,0.001,102.0,101.0,101.0,13.4,1505.2,325.4,-0.8,1.8,2470.062,13.29,0.039,321.1
2022-01-09T09:31:03,42.805,6.029,0.019,0.007,0.028,100.0,102.0,99.0,13.3,1505.2,325.0,-0.7,1.8,2470.054,13.29,0.02,69.8
2022-01-09T09:34:03,42.805,6.029,-0.011,0.006,0.002,100.0,102.0,100.0,13.3,1505.2,326.3,-0.8,1.8,2470.002,13.29,0.012,298.6
2022-01-09T09:37:03,42.805,6.029,-0.01,0.017,0.001,101.0,100.0,100.0,13.4,1505.2,325.8,-0.7,1.8,2469.948,13.29,0.019,329.5
2022-01-09T09:40:03,42.805,6.029,-0.038,0.008,-0.043,101.0,101.0,100.0,13.3,1505.2,328.2,-0.7,1.8,2469.876,13.29,0.038,281.9
2022-01-09T09:43:03,42.805,6.029,0.003,0.023,0.01,101.0,102.0,99.0,13.4,1505.2,329.9,-0.8,1.8,2469.862,13.29,0.023,7.4
2022-01-09T09:46:03,42.805,6.029,-0.019,0.023,-0.008,100.0,101.0,99.0,13.4,1505.2,323.5,-0.8,1.8,2469.853,13.29,0.029,320.4
2022-01-09T09:49:03,42.805,6.029,-0.021,0.022,-0.018,102.0,100.0,100.0,13.3,1505.2,327.3,-0.8,1.8,2469.866,13.29,0.03,316.3
2022-01-09T09:52:03,42.805,6.029,0.009,0.021,0.029,101.0,101.0,100.0,13.4,1505.2,328.3,-0.8,1.8,2469.786,13.29,0.022,23.2
2022-01-09T09:55:03,42.805,6.029,-0.003,-0.005,-0.009,102.0,101.0,101.0,13.4,1505.2,325.8,-0.7,1.8,2469.834,13.29,0.005,211.0
2022-01-09T09:58:03,42.805,6.029,-0.024,-0.001,0.0,101.0,101.0,99.0,13.4,1505.2,327.2,-0.7,1.8,2469.803,13.29,0.024,267.6